YAOGAN-43 02C (60947 NORAD) Tracking and Keplerian Element Data

This shows tracking and keplerian element data for the satellite.

Feedback or suggestion? Click here.




ElementValue
Catalog60947
NameYAOGAN-43 02C
Epoch Orbit603
Epoch Day286.86742787
Epoch Year2024
RAAN89.0694
Inclination34.9985
Eccentricity0.0004731
Argument of Perigee338.7044
Mean Anonmoly21.3473
Mean Motion15.23536695
Decay Rate0.0002326
L11 60947U 24156C 24286.86742787 .00023260 00000+0 94853-3 0 9999
L22 60947 34.9985 89.0694 0004731 338.7044 21.3473 15.23536695 6030



Live tracking and technical data element details for YAOGAN-43 02C (NORAD 60947). YAOGAN-43 02C can be tracked NOW for your location showing map with azimuth and elevation plus other details from your city location.







IsCatalogInMostPopularTable: catalog: 60947, numindb: 6
Update: records affected: 1



GetName: 60947 YAOGAN-43 02C

Hit Count: updated at: Tue, 03 Dec 2024 03:38:22 GMT